Home   Weather   India   Jodhpur   Past weeks
Flag for India

Past Weather in Jodhpur, Rajasthan, India — Yesterday and Last 2 Weeks

Currently: 75 °F. Haze. (Weather station: Jaipur / Sanganer, India). See more current weather

Past Weather in Jodhpur — Graph

°F

Jodhpur Temperature Yesterday

Maximum temperature yesterday: 77 °F (at 3:30 pm)
Minimum temperature yesterday: 54 °F (at 6:30 am)
Average temperature yesterday: 64 °F

High & Low Weather Summary for the Past Weeks

 TemperatureHumidityPressure
High82 °F (Nov 25, 3:30 pm)88% (Nov 30, 4:00 am)30.15 "Hg (Nov 30, 4:00 am)
Low52 °F (Nov 24, 7:00 am)14% (Nov 23, 2:30 pm)29.86 "Hg (Nov 27, 3:30 pm)
Average66 °F55%30.02 "Hg
* Reported Nov 21 4:30 pm — Dec 6 4:30 pm, Jodhpur. Weather by CustomWeather, © 2022

Note: Actual official high and low records may vary slightly from our data, if they occured in-between our weather recording intervals... More about our weather records

Jodhpur Weather History for the Previous 24 Hours

Scroll right to see more
 ConditionsComfort  
Time TempWeatherWind HumidityBarometerVisibility
4:30 pm
Tue, Dec 6
77 °FHaze.5 mph28%30.01 "Hg2 mi
4:00 pm77 °FHaze.5 mph30%30.01 "Hg2 mi
3:30 pm77 °FHaze.5 mph30%30.01 "Hg2 mi
3:00 pm77 °FHaze.3 mph30%30.01 "Hg2 mi
2:30 pm75 °FHaze.5 mph31%30.04 "Hg2 mi
2:00 pm77 °FHaze.3 mph30%30.04 "Hg2 mi
1:30 pm75 °FHaze.3 mph31%30.04 "Hg2 mi
1:00 pm75 °FHaze.7 mph34%30.07 "Hg2 mi
12:30 pm73 °FHaze.7 mph41%30.09 "Hg2 mi
12:00 pm73 °FClear.3 mph44%30.09 "Hg2 mi
11:30 am72 °FClear.6 mph50%30.12 "Hg2 mi
11:00 am70 °FClear.5 mph53%30.12 "Hg1 mi
10:30 am68 °FClear.5 mph56%30.15 "Hg1 mi
10:00 am68 °FClear.5 mph60%30.15 "Hg1 mi
9:30 am66 °FFog.5 mph73%30.15 "Hg1 mi
9:00 am63 °FFog.No wind88%30.12 "Hg1 mi
8:30 am57 °FFog.No wind88%30.12 "Hg1 mi
8:00 am54 °FFog.No wind88%30.09 "Hg1 mi
7:00 am52 °FFog.No wind82%30.09 "Hg1 mi
6:30 am52 °FFog.No wind82%30.07 "Hg1 mi
5:00 am54 °FClear.No wind82%30.07 "Hg1 mi
4:30 am54 °FClear.No wind82%30.07 "Hg1 mi
4:00 am54 °FClear.No wind77%30.07 "Hg1 mi
3:30 am54 °FClear.No wind82%30.07 "Hg1 mi
3:00 am54 °FClear.No wind82%30.04 "Hg1 mi
2:30 am55 °FClear.No wind77%30.04 "Hg1 mi
2:00 am55 °FClear.2 mph77%30.07 "Hg1 mi
1:30 am57 °FClear.2 mph77%30.07 "Hg1 mi
1:00 am57 °FClear.No wind77%30.07 "Hg1 mi
12:30 am57 °FClear.1 mph77%30.07 "Hg1 mi
12:00 am59 °FClear.2 mph72%30.07 "Hg1 mi
11:30 pm
Mon, Dec 5
59 °FClear.No wind72%30.07 "Hg1 mi
10:30 pm63 °FClear.5 mph68%30.09 "Hg1 mi
10:00 pm63 °FClear.3 mph68%30.09 "Hg1 mi
9:30 pm63 °FClear.3 mph64%30.09 "Hg1 mi
9:00 pm63 °FClear.3 mph64%30.09 "Hg1 mi
8:30 pm63 °FClear.No wind59%30.09 "Hg1 mi
8:00 pm64 °FClear.2 mph56%30.09 "Hg1 mi
7:30 pm64 °FClear.5 mph60%30.07 "Hg1 mi
7:00 pm64 °FClear.2 mph60%30.07 "Hg1 mi
6:30 pm66 °FClear.No wind56%30.07 "Hg1 mi
5:30 pm72 °FClear.2 mph50%30.04 "Hg2 mi
5:00 pm73 °FClear.3 mph41%30.04 "Hg2 mi
Weather by CustomWeather, © 2022

See weather overview